• In Hungary
  • List of Countries
  • For 7 days
  • Water Temperature
  • Satellite Maps
  • Weather Map
  • News
  • Weather Widgets
  • user-avatar
    Login

    Hourly Weather Encamp

    Today, 23 January, Tuesday

    Time Temperature Precipitation Wind Pressure Humidity
    00:00 -1°C° 0 mm 3 mps 627 mmHg 79%
    01:00 -1°C° 0 mm 3 mps 627 mmHg 75%
    02:00 -1°C° 0 mm 3 mps 627 mmHg 72%
    03:00 -1°C° 0 mm 3 mps 627 mmHg 69%
    04:00 -2°C° 0 mm 3 mps 627 mmHg 67%
    05:00 -2°C° 0 mm 3 mps 627 mmHg 65%
    06:00 -2°C° 0 mm 2 mps 627 mmHg 61%
    07:00 -1°C° 0 mm 2 mps 628 mmHg 59%
    08:00 +2°C° 0 mm 2 mps 629 mmHg 56%
    09:00 +3°C° 0 mm 2 mps 629 mmHg 53%
    10:00 +4°C° 0 mm 2 mps 630 mmHg 51%
    11:00 +6°C° 0 mm 2 mps 630 mmHg 49%
    12:00 +8°C° 0 mm 2 mps 631 mmHg 48%
    13:00 +8°C° 0 mm 2 mps 631 mmHg 51%
    14:00 +8°C° 0 mm 2 mps 631 mmHg 54%
    15:00 +7°C° 0 mm 2 mps 631 mmHg 57%
    16:00 +5°C° 0 mm 2 mps 630 mmHg 63%
    17:00 +3°C° 0 mm 2 mps 629 mmHg 69%
    18:00 +2°C° 0 mm 1 mps 629 mmHg 75%
    19:00 +2°C° 0 mm 1 mps 629 mmHg 73%
    20:00 +2°C° 0 mm 1 mps 629 mmHg 70%
    21:00 +2°C° 0 mm 1 mps 629 mmHg 68%
    22:00 +2°C° 0 mm 1 mps 629 mmHg 66%
    23:00 +2°C° 0 mm 1 mps 629 mmHg 64%

    Tomorrow, 24 January, Wednesday

    Time Temperature Precipitation Wind Pressure Humidity
    00:00 +2°C° 0 mm 1 mps 629 mmHg 63%
    01:00 +2°C° 0 mm 1 mps 629 mmHg 63%
    02:00 +1°C° 0 mm 1 mps 628 mmHg 63%
    03:00 +1°C° 0 mm 1 mps 628 mmHg 62%
    04:00 +1°C° 0 mm 1 mps 628 mmHg 62%
    05:00 +1°C° 0 mm 1 mps 628 mmHg 62%
    06:00 +1°C° 0 mm 1 mps 628 mmHg 62%
    07:00 +2°C° 0 mm 1 mps 628 mmHg 60%
    08:00 +3°C° 0 mm 1 mps 628 mmHg 58%
    09:00 +4°C° 0 mm 1 mps 629 mmHg 57%
    10:00 +5°C° 0 mm 2 mps 629 mmHg 54%
    11:00 +6°C° 0 mm 2 mps 630 mmHg 50%
    12:00 +8°C° 0 mm 2 mps 630 mmHg 47%
    13:00 +8°C° 0 mm 2 mps 630 mmHg 50%
    14:00 +8°C° 0 mm 2 mps 629 mmHg 52%
    15:00 +7°C° 0 mm 2 mps 629 mmHg 54%
    16:00 +5°C° 0 mm 2 mps 628 mmHg 60%
    17:00 +4°C° 0 mm 1 mps 627 mmHg 65%
    18:00 +2°C° 0 mm 1 mps 627 mmHg 71%
    19:00 +2°C° 0 mm 1 mps 627 mmHg 69%
    20:00 +2°C° 0 mm 1 mps 626 mmHg 67%
    21:00 +1°C° 0 mm 1 mps 626 mmHg 65%
    22:00 +1°C° 0 mm 1 mps 626 mmHg 66%
    23:00 +1°C° 0 mm 1 mps 626 mmHg 67%

    Day after tomorrow, 25 January, Thursday

    Time Temperature Precipitation Wind Pressure Humidity
    00:00 -1°C° 0 mm 2 mps 625 mmHg 69%
    01:00 -1°C° 0 mm 2 mps 625 mmHg 69%
    02:00 -1°C° 0 mm 2 mps 625 mmHg 70%
    03:00 -1°C° 0 mm 2 mps 624 mmHg 71%
    04:00 -1°C° 0 mm 2 mps 624 mmHg 71%
    05:00 -1°C° 0 mm 2 mps 623 mmHg 71%
    06:00 -1°C° 0 mm 2 mps 623 mmHg 71%
    07:00 +1°C° 0 mm 2 mps 623 mmHg 68%
    08:00 +2°C° 0 mm 2 mps 623 mmHg 66%
    09:00 +3°C° 0 mm 2 mps 623 mmHg 63%
    10:00 +3°C° 0 mm 3 mps 623 mmHg 59%
    11:00 +4°C° 0 mm 3 mps 624 mmHg 54%
    12:00 +5°C° 0 mm 4 mps 624 mmHg 50%
    13:00 +4°C° 0 mm 3 mps 623 mmHg 52%
    14:00 +4°C° 0 mm 3 mps 622 mmHg 55%
    15:00 +3°C° 0 mm 3 mps 622 mmHg 58%
    16:00 +2°C° 0 mm 3 mps 621 mmHg 66%
    17:00 +2°C° 0 mm 2 mps 621 mmHg 74%
    18:00 -1°C° 0 mm 2 mps 620 mmHg 82%
    19:00 -1°C° 0.3 mm 2 mps 620 mmHg 85%
    20:00 -2°C° 0.3 mm 2 mps 621 mmHg 88%
    21:00 -2°C° 0.3 mm 2 mps 621 mmHg 90%
    22:00 -2°C° 0.3 mm 2 mps 621 mmHg 89%
    23:00 -2°C° 0.3 mm 2 mps 621 mmHg 89%

    26 January, Friday

    Time Temperature Precipitation Wind Pressure Humidity
    00:00 -3°C° 0.3 mm 2 mps 621 mmHg 88%
    01:00 -4°C° 0.4 mm 3 mps 621 mmHg 88%
    02:00 -4°C° 0.4 mm 3 mps 621 mmHg 87%
    03:00 -5°C° 0.4 mm 3 mps 620 mmHg 87%
    04:00 -5°C° 0.3 mm 3 mps 621 mmHg 85%
    05:00 -5°C° 0.3 mm 3 mps 621 mmHg 83%
    06:00 -5°C° 0.3 mm 3 mps 621 mmHg 81%
    07:00 -5°C° 0.1 mm 4 mps 621 mmHg 79%
    08:00 -4°C° 0.1 mm 4 mps 622 mmHg 76%
    09:00 -4°C° 0.1 mm 4 mps 622 mmHg 74%
    10:00 -3°C° 0 mm 4 mps 623 mmHg 69%
    11:00 -3°C° 0 mm 4 mps 623 mmHg 65%
    12:00 -2°C° 0 mm 4 mps 624 mmHg 60%
    13:00 -2°C° 0 mm 4 mps 624 mmHg 59%
    14:00 -2°C° 0 mm 4 mps 624 mmHg 59%
    15:00 -2°C° 0 mm 5 mps 624 mmHg 58%
    16:00 -4°C° 0 mm 4 mps 624 mmHg 62%
    17:00 -5°C° 0 mm 4 mps 624 mmHg 66%
    18:00 -6°C° 0 mm 3 mps 624 mmHg 70%
    19:00 -6°C° 0.1 mm 3 mps 624 mmHg 71%
    20:00 -6°C° 0.1 mm 3 mps 624 mmHg 72%
    21:00 -6°C° 0.1 mm 3 mps 625 mmHg 74%
    22:00 -6°C° 0.2 mm 3 mps 625 mmHg 74%
    23:00 -7°C° 0.2 mm 4 mps 625 mmHg 75%

    27 January, Saturday

    Time Temperature Precipitation Wind Pressure Humidity
    00:00 -7°C° 0.2 mm 4 mps 625 mmHg 76%
    01:00 -8°C° 0.1 mm 4 mps 625 mmHg 76%
    02:00 -8°C° 0.1 mm 4 mps 625 mmHg 75%
    03:00 -8°C° 0.1 mm 4 mps 625 mmHg 75%
    04:00 -8°C° 0.1 mm 4 mps 625 mmHg 75%
    05:00 -9°C° 0.1 mm 4 mps 625 mmHg 75%
    06:00 -9°C° 0.1 mm 4 mps 625 mmHg 75%
    07:00 -8°C° 0 mm 4 mps 625 mmHg 72%
    08:00 -8°C° 0 mm 5 mps 626 mmHg 69%
    09:00 -7°C° 0 mm 5 mps 626 mmHg 67%
    10:00 -6°C° 0 mm 5 mps 626 mmHg 63%
    11:00 -5°C° 0 mm 5 mps 627 mmHg 60%
    12:00 -5°C° 0 mm 5 mps 627 mmHg 56%
    13:00 -4°C° 0 mm 4 mps 627 mmHg 56%
    14:00 -4°C° 0 mm 4 mps 626 mmHg 57%
    15:00 -4°C° 0 mm 4 mps 626 mmHg 57%
    16:00 -5°C° 0.1 mm 4 mps 626 mmHg 63%
    17:00 -7°C° 0.1 mm 4 mps 626 mmHg 68%
    18:00 -8°C° 0.1 mm 4 mps 626 mmHg 74%
    19:00 -7°C° 0 mm 3 mps 627 mmHg 75%
    20:00 -7°C° 0 mm 3 mps 627 mmHg 77%
    21:00 -7°C° 0 mm 3 mps 628 mmHg 78%
    22:00 -7°C° 0 mm 3 mps 628 mmHg 77%
    23:00 -8°C° 0 mm 3 mps 628 mmHg 76%

    28 January, Sunday

    Time Temperature Precipitation Wind Pressure Humidity
    00:00 -8°C° 0 mm 3 mps 628 mmHg 76%
    01:00 -7°C° 0 mm 3 mps 628 mmHg 74%
    02:00 -7°C° 0 mm 3 mps 628 mmHg 72%
    03:00 -5°C° 0 mm 2 mps 629 mmHg 71%
    04:00 -5°C° 0 mm 2 mps 629 mmHg 72%
    05:00 -5°C° 0 mm 2 mps 629 mmHg 73%
    06:00 -4°C° 0 mm 2 mps 630 mmHg 74%
    07:00 -4°C° 0.1 mm 2 mps 630 mmHg 73%
    08:00 -3°C° 0.1 mm 2 mps 631 mmHg 72%
    09:00 -2°C° 0.1 mm 2 mps 632 mmHg 71%
    10:00 +1°C° 0 mm 2 mps 632 mmHg 68%
    11:00 +2°C° 0 mm 2 mps 633 mmHg 65%
    12:00 +4°C° 0 mm 2 mps 633 mmHg 63%
    13:00 +4°C° 0 mm 2 mps 633 mmHg 64%
    14:00 +4°C° 0 mm 2 mps 632 mmHg 64%
    15:00 +4°C° 0 mm 2 mps 632 mmHg 65%
    16:00 +2°C° 0 mm 2 mps 632 mmHg 72%
    17:00 -1°C° 0 mm 2 mps 631 mmHg 78%
    18:00 -3°C° 0 mm 2 mps 631 mmHg 85%
    19:00 -3°C° 0 mm 2 mps 631 mmHg 80%
    20:00 -4°C° 0 mm 2 mps 631 mmHg 75%
    21:00 -4°C° 0 mm 2 mps 631 mmHg 70%
    22:00 -4°C° 0 mm 2 mps 631 mmHg 68%
    23:00 -4°C° 0 mm 2 mps 631 mmHg 66%
    Show more